Location: Caltech
(34.1382°N, 118.1253°W)
Time: 17:44:00
(UTC-07:00)

AO-Echo - Visible Passes

Search period start: 24 April 2014 00:00
Search period end: 04 May 2014 00:00
Orbit: 694 x 814 km, 98.2° (Epoch: 23 April)

Date Brightness Start Highest point End Pass type
(mag) Time Alt. Az. Time Alt. Az. Time Alt. Az.
24 Apr ? 03:21:28 10° N 03:24:24 38° N 03:24:24 38° N visible
25 Apr ? 02:41:43 10° NNE 02:43:58 25° NE 02:43:58 25° NE visible
25 Apr ? 04:21:31 10° NNW 04:23:56 17° WNW 04:23:56 17° WNW visible
26 Apr ? 02:03:21 10° ENE 02:03:32 11° ENE 02:03:32 11° ENE visible
26 Apr ? 03:40:21 10° N 03:43:30 35° NNW 03:43:30 35° NNW visible
27 Apr ? 03:00:11 10° NNE 03:03:04 36° NNE 03:03:04 36° NNE visible
27 Apr ? 04:41:55 10° NW 04:43:02 11° WNW 04:43:02 11° WNW visible
28 Apr ? 02:20:58 10° NE 02:22:38 17° ENE 02:22:38 17° ENE visible
28 Apr ? 03:59:25 10° NNW 04:02:36 27° NW 04:02:36 27° NW visible
29 Apr ? 03:18:50 10° N 03:22:10 46° N 03:22:10 46° N visible
30 Apr ? 02:39:07 10° NNE 02:41:43 27° NE 02:41:43 27° NE visible
30 Apr ? 04:18:46 10° NNW 04:21:42 18° WNW 04:21:42 18° WNW visible
01 May ? 02:00:54 10° ENE 02:01:17 11° ENE 02:01:17 11° ENE visible
01 May ? 03:37:40 10° N 03:41:15 41° NW 03:41:15 41° NW visible
02 May ? 02:57:33 10° NNE 03:00:49 42° NE 03:00:49 42° NE visible
02 May ? 04:38:54 10° NW 04:40:25 12° WNW 04:40:47 11° WNW visible
03 May ? 02:18:23 10° NE 02:20:22 18° ENE 02:20:22 18° ENE visible
03 May ? 03:56:42 10° N 04:00:20 29° WNW 04:00:20 29° WNW visible
